"startDT [UTC]","vpos","CH4 [ppm]","stdev(CH4) [ppm]","CO2 [ppm]","stdev(CO2) [ppm]","H2O [ppm]","stdev(H2O)","p_LGR [torr]","T_LGR [C]","mt1_LGR [us]","mt2_LGR [us]","T_ECpre [C]","T_EC1 [C]","T_EC2 [C]","p_inlet [hPa]","p_in [hPa]","p_out [hPa]","T_inlet [C]","RH_inlet [%]","dwpt_inlet [C]","T_vent [C]","RH_vent [%]","dwpt_vent [C]","flow_vent [l min-1]","flow_inlet [l min-1]","dwpt_sample [C]","T_room [C]"
2012-08-31 00:00:00,0.0,1.9469,0.0009,388.41,0.31,211.0,32.0,138.05,31.51,24.66,36.53,0.97,-25.95,-26.21,-46,41,-932,23.1,26.9,3.0,23.3,1.9,-29.5,5.73,2.56,-27.9,28.6
2012-08-31 00:01:00,0.0,1.9468,0.0009,388.35,0.30,204.6,29.0,138.05,31.51,24.66,36.53,1.01,-26.16,-26.23,-46,41,-931,23.0,26.8,2.9,23.3,1.9,-29.5,5.73,2.59,-28.0,28.6
2012-08-31 00:02:00,0.0,1.9464,0.0009,388.30,0.31,211.5,28.7,138.05,31.51,24.66,36.53,1.03,-25.95,-26.23,-46,41,-931,23.0,26.8,2.9,23.3,1.9,-29.4,5.73,2.57,-28.0,28.6
2012-08-31 00:03:00,0.0,1.9463,0.0009,388.30,0.32,210.6,28.9,138.05,31.51,24.66,36.54,1.04,-25.92,-26.23,-46,41,-932,23.0,26.5,2.8,23.3,1.9,-29.4,5.73,2.55,-28.0,28.6
2012-08-31 00:04:00,0.0,1.9462,0.0008,388.28,0.27,201.3,34.4,138.05,31.51,24.66,36.54,0.96,-26.08,-26.24,-46,41,-932,23.1,26.4,2.7,23.2,1.9,-29.4,5.73,2.58,-28.0,28.7
2012-08-31 00:05:00,0.0,1.9475,0.0009,388.39,0.30,207.4,32.0,138.05,31.51,24.65,36.53,0.91,-26.16,-26.25,-46,41,-931,23.1,26.4,2.7,23.2,1.9,-29.5,5.73,2.59,-28.0,28.6
2012-08-31 00:06:00,0.0,1.9479,0.0010,388.42,0.29,211.8,30.9,138.05,31.51,24.65,36.54,1.02,-25.90,-26.26,-46,41,-931,23.1,26.5,2.8,23.3,1.9,-29.3,5.73,2.56,-28.0,28.6
2012-08-31 00:07:00,0.0,1.9485,0.0008,388.48,0.30,202.3,28.0,138.05,31.51,24.66,36.53,1.01,-26.00,-26.27,-46,41,-932,23.0,26.8,2.9,23.3,1.9,-29.5,5.73,2.57,-28.0,28.6
2012-08-31 00:08:00,0.0,1.9481,0.0009,388.39,0.28,205.9,28.8,138.05,31.51,24.65,36.54,1.05,-26.17,-26.28,-46,41,-931,23.1,26.5,2.7,23.2,1.8,-29.7,5.73,2.59,-28.1,28.6
2012-08-31 00:09:00,0.0,1.9478,0.0011,388.40,0.29,205.5,28.1,138.05,31.50,24.66,36.53,0.96,-26.09,-26.28,-46,41,-931,23.0,26.6,2.8,23.2,1.9,-29.5,5.73,2.57,-28.1,28.6
2012-08-31 00:10:00,0.0,1.9469,0.0008,388.43,0.26,203.3,31.2,138.05,31.50,24.66,36.53,0.98,-25.94,-26.29,-46,41,-932,23.1,26.5,2.8,23.2,1.8,-29.6,5.73,2.55,-28.1,28.7
2012-08-31 00:11:00,0.0,1.9478,0.0011,388.43,0.26,207.4,27.6,138.05,31.50,24.66,36.54,0.96,-26.09,-26.30,-46,41,-931,23.1,26.4,2.8,23.3,1.9,-29.5,5.73,2.58,-28.1,28.7
2012-08-31 00:12:00,0.0,1.9487,0.0009,388.35,0.31,207.4,26.0,138.05,31.50,24.66,36.53,0.98,-26.25,-26.31,-46,41,-931,23.1,26.5,2.8,23.3,1.8,-29.6,5.73,2.59,-28.1,28.6
2012-08-31 00:13:00,0.0,1.9490,0.0009,388.46,0.29,202.0,27.5,138.05,31.50,24.66,36.54,1.01,-25.99,-26.31,-46,41,-932,23.1,26.8,3.0,23.3,1.8,-29.6,5.73,2.56,-28.1,28.6
2012-08-31 00:14:00,0.0,1.9490,0.0009,388.52,0.33,201.0,28.0,138.05,31.50,24.66,36.53,0.96,-26.02,-26.15,-46,41,-931,23.1,26.7,2.9,23.3,1.9,-29.5,5.73,2.57,-28.1,28.7
2012-08-31 00:15:00,0.0,1.9490,0.0008,388.48,0.30,204.1,28.6,138.05,31.50,24.66,36.54,0.90,-26.19,-24.76,-46,41,-931,23.1,26.6,2.8,23.3,1.8,-29.5,5.73,2.59,-28.0,28.7
2012-08-31 00:16:00,0.0,1.9477,0.0009,388.44,0.28,213.8,31.9,138.05,31.50,24.66,36.54,0.94,-26.31,-22.84,-46,41,-932,23.0,26.4,2.7,23.2,1.8,-29.6,5.73,2.59,-27.7,28.6
2012-08-31 00:17:00,0.0,1.9483,0.0010,388.43,0.33,246.6,27.7,138.05,31.50,24.66,36.54,0.94,-26.36,-20.87,-46,41,-931,23.0,26.3,2.7,23.2,1.9,-29.1,5.73,2.56,-27.3,28.7
2012-08-31 00:18:00,0.0,1.9494,0.0009,388.41,0.31,276.8,26.7,138.05,31.50,24.66,36.54,0.85,-26.39,-18.97,-46,41,-931,23.0,26.7,2.8,23.2,2.1,-28.4,5.73,2.57,-27.0,28.7
2012-08-31 00:19:00,0.0,1.9487,0.0009,388.41,0.35,281.8,32.1,138.05,31.50,24.66,36.54,0.80,-26.38,-17.16,-46,41,-932,23.1,26.7,2.9,23.2,2.2,-28.0,5.73,2.60,-26.8,28.6
2012-08-31 00:20:00,0.0,1.9490,0.0008,388.48,0.30,293.7,29.3,138.05,31.50,24.66,36.54,0.86,-26.37,-15.44,-46,41,-931,23.0,26.4,2.7,23.2,2.2,-27.6,5.73,2.59,-26.7,28.7
2012-08-31 00:21:00,0.0,1.9485,0.0009,388.52,0.23,300.7,29.8,138.05,31.50,24.65,36.53,0.92,-26.35,-13.82,-46,41,-931,23.1,26.6,2.8,23.2,2.2,-27.6,5.73,2.56,-26.7,28.7
2012-08-31 00:22:00,0.0,1.9489,0.0013,388.60,0.29,298.1,35.6,138.05,31.50,24.66,36.53,0.94,-26.33,-12.28,-46,41,-932,23.0,26.2,2.6,23.2,2.2,-27.7,5.73,2.57,-26.6,28.7
2012-08-31 00:23:00,0.0,1.9499,0.0008,388.57,0.29,299.3,31.8,138.05,31.50,24.66,36.54,0.95,-26.31,-10.82,-46,41,-931,23.1,26.3,2.6,23.2,2.2,-27.6,5.73,2.59,-26.5,28.7
2012-08-31 00:24:00,0.0,1.9500,0.0008,388.43,0.30,299.6,30.4,138.05,31.50,24.66,36.54,0.88,-26.28,-9.44,-46,41,-931,23.0,26.5,2.8,23.2,2.2,-27.5,5.73,2.58,-26.5,28.8
2012-08-31 00:25:00,0.0,1.9496,0.0007,388.56,0.32,296.5,31.2,138.04,31.50,24.66,36.53,0.82,-26.26,-8.13,-46,41,-932,23.0,26.5,2.7,23.2,2.2,-27.7,5.73,2.56,-26.5,28.7
2012-08-31 00:26:00,0.0,1.9491,0.0010,388.48,0.31,298.4,28.0,138.04,31.50,24.66,36.53,0.86,-26.23,-6.89,-46,41,-931,23.0,26.4,2.7,23.3,2.2,-27.7,5.73,2.57,-26.6,28.8
2012-08-31 00:27:00,0.0,1.9494,0.0010,388.53,0.24,290.9,28.3,138.04,31.49,24.66,36.54,0.89,-26.20,-5.72,-46,41,-931,23.0,26.6,2.8,23.3,2.2,-27.8,5.73,2.59,-26.6,28.7
2012-08-31 00:28:00,0.0,1.9487,0.0010,388.53,0.27,294.8,28.1,138.04,31.49,24.66,36.54,0.91,-26.17,-4.60,-46,41,-932,23.0,26.6,2.8,23.2,2.2,-27.9,5.73,2.59,-26.6,28.7
2012-08-31 00:29:00,0.0,1.9490,0.0009,388.44,0.24,287.0,31.7,138.05,31.50,24.66,36.54,0.93,-26.15,-3.54,-46,41,-931,23.0,26.8,2.9,23.3,2.1,-28.1,5.73,2.57,-26.7,28.7
2012-08-31 00:30:00,0.0,1.9491,0.0009,388.48,0.30,292.1,30.1,138.05,31.50,24.66,36.54,0.94,-26.12,-2.53,-46,41,-931,23.1,26.9,3.0,23.3,2.1,-28.0,5.73,2.56,-26.7,28.7
2012-08-31 00:31:00,0.0,1.9491,0.0009,388.48,0.27,280.6,32.1,138.04,31.50,24.66,36.54,0.91,-26.09,-1.57,-46,41,-932,23.0,27.0,3.0,23.2,2.1,-28.3,5.73,2.58,-26.7,28.8
2012-08-31 00:32:00,0.0,1.9476,0.0008,388.44,0.32,278.9,29.2,138.04,31.50,24.66,36.54,0.88,-26.07,-0.66,-46,41,-931,23.0,26.7,2.8,23.2,2.1,-28.0,5.73,2.59,-26.8,28.8
2012-08-31 00:33:00,0.0,1.9470,0.0011,388.38,0.26,285.4,38.7,138.04,31.50,24.66,36.54,0.86,-26.05,0.21,-46,41,-931,23.0,26.5,2.8,23.2,2.1,-28.2,5.73,2.57,-26.8,28.7
2012-08-31 00:34:00,0.0,1.9470,0.0010,388.46,0.33,276.9,28.6,138.04,31.50,24.66,36.54,0.89,-26.02,1.03,-46,41,-932,23.0,26.2,2.6,23.2,2.1,-28.1,5.73,2.56,-26.8,28.7
2012-08-31 00:35:00,0.0,1.9469,0.0008,388.44,0.26,275.3,30.9,138.04,31.49,24.66,36.53,0.91,-26.00,1.79,-46,41,-931,23.0,26.1,2.5,23.2,2.1,-28.4,5.73,2.58,-26.8,28.7
2012-08-31 00:36:00,0.0,1.9476,0.0009,388.57,0.27,274.4,36.6,138.04,31.49,24.66,36.54,0.91,-25.98,2.48,-46,41,-931,23.0,26.3,2.6,23.2,2.1,-28.2,5.73,2.59,-26.8,28.7
2012-08-31 00:37:00,0.0,1.9482,0.0008,388.42,0.31,281.0,30.3,138.04,31.50,24.65,36.55,0.93,-25.96,2.99,-46,41,-932,23.0,26.4,2.7,23.2,2.1,-28.3,5.73,2.58,-26.8,28.7
2012-08-31 00:38:00,0.0,1.9477,0.0009,388.44,0.28,274.9,32.0,138.04,31.49,24.66,36.54,0.93,-25.94,3.21,-46,41,-931,23.0,26.7,2.8,23.2,2.1,-28.3,5.73,2.56,-26.9,28.7
2012-08-31 00:39:00,0.0,1.9473,0.0008,388.49,0.30,276.6,33.4,138.04,31.50,24.66,36.54,0.95,-25.93,3.38,-46,41,-931,23.0,26.8,2.9,23.2,2.1,-28.4,5.73,2.57,-26.9,28.8
2012-08-31 00:40:00,0.0,1.9478,0.0010,388.51,0.32,273.4,32.4,138.04,31.50,24.66,36.54,0.96,-25.90,3.71,-46,41,-932,23.0,26.8,2.9,23.2,2.1,-28.4,5.73,2.59,-26.9,28.8
2012-08-31 00:41:00,0.0,1.9479,0.0009,388.55,0.28,271.5,30.7,138.04,31.50,24.66,36.54,0.92,-25.89,4.23,-46,41,-931,23.0,26.4,2.7,23.2,2.0,-28.5,5.73,2.58,-26.9,28.8
2012-08-31 00:42:00,0.0,1.9471,0.0009,388.53,0.34,272.7,30.1,138.04,31.50,24.66,36.54,0.89,-25.87,4.84,-46,41,-931,23.0,26.1,2.5,23.3,2.1,-28.2,5.73,2.57,-26.9,28.8
2012-08-31 00:43:00,0.0,1.9478,0.0012,388.56,0.32,272.0,32.4,138.04,31.50,24.66,36.54,0.87,-25.86,5.41,-46,41,-932,23.0,26.0,2.5,23.3,2.0,-28.5,5.73,2.56,-26.9,28.8
2012-08-31 00:44:00,0.0,1.9484,0.0009,388.55,0.28,272.0,25.7,138.04,31.50,24.65,36.54,0.88,-25.84,5.93,-46,41,-931,23.0,26.4,2.7,23.3,2.1,-28.5,5.73,2.58,-26.9,28.8
2012-08-31 00:45:00,0.0,1.9469,0.0010,388.50,0.30,271.3,28.3,138.04,31.50,24.66,36.54,0.91,-25.83,6.43,-46,41,-931,23.0,26.3,2.6,23.3,2.1,-28.4,5.73,2.59,-26.9,28.8
2012-08-31 00:46:00,0.0,1.9451,0.0009,388.48,0.33,270.3,32.3,138.04,31.50,24.66,36.54,0.92,-25.81,6.91,-46,41,-932,23.0,26.3,2.6,23.3,2.0,-28.5,5.73,2.58,-26.9,28.8
2012-08-31 00:47:00,0.0,1.9441,0.0009,388.43,0.26,269.5,29.5,138.04,31.50,24.66,36.54,0.92,-25.80,7.37,-46,41,-931,23.1,26.3,2.7,23.3,2.1,-28.4,5.73,2.56,-26.9,28.8
2012-08-31 00:48:00,0.0,1.9445,0.0008,388.41,0.30,270.7,25.8,138.04,31.51,24.66,36.54,0.93,-25.78,7.81,-46,41,-931,23.0,26.4,2.7,23.3,2.1,-28.4,5.73,2.56,-26.9,28.8
2012-08-31 00:49:00,0.0,1.9448,0.0012,388.46,0.32,267.8,32.7,138.04,31.51,24.66,36.54,0.94,-25.77,8.23,-46,41,-932,23.0,26.8,2.9,23.3,2.0,-28.5,5.73,2.58,-26.9,28.8
2012-08-31 00:50:00,0.0,1.9439,0.0010,388.37,0.29,270.9,31.3,138.04,31.51,24.66,36.54,0.94,-25.76,8.65,-46,41,-931,23.1,26.3,2.7,23.3,2.1,-28.3,5.73,2.59,-26.9,28.8
2012-08-31 00:51:00,0.0,1.9439,0.0010,388.36,0.30,267.8,34.6,138.04,31.51,24.66,36.54,0.95,-25.75,9.04,-46,41,-931,23.0,26.1,2.5,23.3,2.1,-28.3,5.73,2.57,-26.9,28.8
2012-08-31 00:52:00,0.0,1.9437,0.0008,388.44,0.30,273.6,35.1,138.04,31.51,24.66,36.53,0.94,-25.74,9.42,-46,41,-932,23.1,26.3,2.7,23.3,2.1,-28.2,5.73,2.56,-26.9,28.9
2012-08-31 00:53:00,0.0,1.9439,0.0010,388.45,0.32,268.0,32.7,138.04,31.51,24.66,36.54,0.92,-25.73,9.79,-46,41,-931,23.1,26.2,2.6,23.3,2.0,-28.6,5.73,2.56,-26.9,28.9
2012-08-31 00:54:00,0.0,1.9448,0.0011,388.44,0.27,269.7,30.7,138.04,31.51,24.65,36.54,0.90,-25.72,10.15,-46,41,-931,23.1,26.3,2.6,23.3,2.1,-28.4,5.73,2.57,-26.9,28.9
2012-08-31 00:55:00,0.0,1.9443,0.0008,388.52,0.26,271.3,28.7,138.04,31.51,24.65,36.54,0.87,-25.71,10.50,-46,41,-932,23.1,26.3,2.6,23.3,2.1,-28.3,5.73,2.58,-26.9,28.9
2012-08-31 00:56:00,0.0,1.9441,0.0011,388.54,0.26,272.9,37.6,138.04,31.51,24.66,36.54,0.89,-25.70,10.84,-46,41,-931,23.1,26.0,2.5,23.3,2.1,-28.4,5.73,2.58,-26.9,28.9
2012-08-31 00:57:00,0.0,1.9449,0.0010,388.52,0.32,267.7,27.2,138.04,31.52,24.66,36.54,0.91,-25.69,11.18,-46,41,-931,23.0,25.8,2.4,23.3,2.1,-28.4,5.73,2.56,-26.9,28.9
2012-08-31 00:58:00,0.0,1.9449,0.0009,388.57,0.26,268.1,34.8,138.04,31.52,24.66,36.53,0.90,-25.69,11.49,-46,41,-931,23.1,26.0,2.5,23.3,2.1,-28.4,5.73,2.56,-26.9,28.9
2012-08-31 00:59:00,0.0,1.9448,0.0009,388.48,0.29,276.5,31.3,138.04,31.52,24.66,36.54,0.92,-25.68,11.80,-46,41,-932,23.1,26.4,2.7,23.3,2.1,-28.3,5.73,2.57,-26.9,28.9
2012-08-31 01:00:00,0.0,1.9434,0.0012,388.55,0.31,266.5,28.1,138.04,31.52,24.66,36.53,0.93,-25.68,12.10,-46,41,-931,23.1,26.3,2.7,23.3,2.1,-28.3,5.73,2.58,-26.9,28.9
2012-08-31 01:01:00,0.0,1.9422,0.0008,388.40,0.33,275.2,28.8,138.04,31.52,24.66,36.54,0.93,-25.67,12.38,-46,41,-931,23.0,25.9,2.4,23.3,2.0,-28.5,5.73,2.58,-26.9,28.9
2012-08-31 01:02:00,0.0,1.9433,0.0009,388.52,0.29,271.8,29.9,138.04,31.52,24.66,36.54,0.94,-25.66,12.66,-46,41,-932,23.0,25.9,2.4,23.3,2.1,-28.4,5.73,2.56,-26.9,28.9
2012-08-31 01:03:00,0.0,1.9438,0.0010,388.45,0.30,268.9,22.6,138.04,31.52,24.66,36.54,0.93,-25.65,12.92,-46,41,-931,23.0,25.8,2.4,23.3,2.1,-28.4,5.73,2.55,-26.9,28.9
2012-08-31 01:04:00,0.0,1.9438,0.0008,388.53,0.31,271.8,28.7,138.04,31.52,24.66,36.53,0.94,-25.65,13.17,-46,41,-931,23.1,25.8,2.4,23.3,2.1,-28.4,5.73,2.56,-26.9,28.9
2012-08-31 01:05:00,0.0,1.9430,0.0010,388.41,0.29,274.5,28.5,138.04,31.52,24.66,36.54,0.95,-25.65,13.42,-46,41,-931,23.1,25.9,2.5,23.3,2.1,-28.4,5.73,2.58,-26.9,28.9
2012-08-31 01:06:00,0.0,1.9432,0.0008,388.41,0.33,266.2,33.1,138.04,31.52,24.66,36.54,0.94,-25.64,13.65,-46,41,-932,23.1,25.9,2.5,23.3,2.1,-28.4,5.73,2.58,-26.9,28.8
2012-08-31 01:07:00,0.0,1.9441,0.0009,388.47,0.33,274.2,30.0,138.04,31.52,24.65,36.54,0.93,-25.64,13.87,-46,41,-931,23.1,25.7,2.3,23.3,2.1,-28.4,5.73,2.57,-26.8,28.9
2012-08-31 01:08:00,0.0,1.9439,0.0009,388.43,0.26,274.1,31.8,138.04,31.52,24.65,36.54,0.92,-25.63,14.09,-46,41,-931,23.1,25.6,2.3,23.3,2.1,-28.3,5.73,2.55,-26.9,28.9
2012-08-31 01:09:00,0.0,1.9429,0.0008,388.46,0.24,271.0,34.0,138.04,31.53,24.66,36.53,0.93,-25.63,14.29,-46,41,-931,23.1,25.8,2.4,23.3,2.1,-28.3,5.73,2.56,-26.8,28.8
2012-08-31 01:10:00,0.0,1.9434,0.0009,388.49,0.30,274.0,32.7,138.04,31.53,24.66,36.54,0.91,-25.63,14.49,-46,41,-932,23.1,25.8,2.4,23.3,2.1,-28.3,5.73,2.57,-26.8,28.8
2012-08-31 01:11:00,0.0,1.9434,0.0008,388.52,0.32,270.3,32.8,138.04,31.53,24.66,36.54,0.89,-25.63,14.68,-46,41,-931,23.0,25.7,2.3,23.3,2.1,-28.4,5.73,2.58,-26.9,28.8
2012-08-31 01:12:00,0.0,1.9436,0.0010,388.38,0.28,275.3,32.5,138.04,31.53,24.66,36.54,0.89,-25.62,14.86,-46,41,-931,23.1,26.0,2.5,23.3,2.1,-28.3,5.73,2.57,-26.9,28.9
2012-08-31 01:13:00,0.0,1.9434,0.0010,388.51,0.29,264.7,31.5,138.04,31.53,24.66,36.54,0.90,-25.61,15.03,-46,41,-931,23.1,26.4,2.8,23.3,2.1,-28.3,5.73,2.55,-26.9,28.9
2012-08-31 01:14:00,0.0,1.9437,0.0010,388.47,0.29,266.4,28.4,138.04,31.53,24.66,36.53,0.92,-25.61,15.20,-46,41,-932,23.1,26.5,2.7,23.3,2.1,-28.4,5.73,2.55,-26.9,28.9
2012-08-31 01:15:00,0.0,1.9435,0.0009,388.49,0.30,272.6,30.4,138.04,31.53,24.66,36.54,0.91,-25.61,15.36,-46,41,-931,23.1,26.3,2.7,23.3,2.1,-28.3,5.73,2.57,-26.9,28.9
2012-08-31 01:16:00,0.0,1.9441,0.0009,388.43,0.26,271.2,31.1,138.04,31.53,24.66,36.54,0.92,-25.60,15.51,-46,41,-931,23.1,26.6,2.8,23.3,2.1,-28.3,5.73,2.58,-26.9,28.9
2012-08-31 01:17:00,0.0,1.9438,0.0011,388.57,0.27,268.3,30.9,138.04,31.53,24.66,36.53,0.94,-25.60,15.65,-46,41,-931,23.1,26.3,2.7,23.3,2.1,-28.3,5.73,2.58,-26.9,28.9
2012-08-31 01:18:00,0.0,1.9427,0.0009,388.48,0.29,270.8,27.3,138.04,31.53,24.66,36.54,0.91,-25.60,15.79,-46,41,-932,23.1,25.7,2.4,23.3,2.1,-28.4,5.73,2.56,-26.9,28.9
2012-08-31 01:19:00,0.0,1.9440,0.0010,388.46,0.29,265.2,30.1,138.04,31.53,24.66,36.54,0.93,-25.60,15.92,-46,41,-931,23.1,25.8,2.4,23.3,2.1,-28.3,5.73,2.55,-26.9,28.9
2012-08-31 01:20:00,0.0,1.9445,0.0010,388.47,0.35,273.6,28.1,138.04,31.53,24.65,36.53,0.93,-25.59,16.05,-46,41,-931,23.1,26.3,2.7,23.3,2.1,-28.4,5.73,2.56,-26.9,29.0
2012-08-31 01:21:00,0.0,1.9436,0.0010,388.35,0.30,272.6,26.3,138.04,31.53,24.66,36.53,0.94,-25.59,16.17,-46,41,-931,23.1,26.8,2.9,23.3,2.1,-28.2,5.73,2.58,-26.8,29.0
2012-08-31 01:22:00,0.0,1.9428,0.0009,388.37,0.34,268.3,35.7,138.04,31.53,24.66,36.55,0.94,-25.59,16.29,-46,41,-932,23.1,26.1,2.6,23.3,2.1,-28.2,5.73,2.58,-26.8,29.0
2012-08-31 01:23:00,0.0,1.9444,0.0008,388.46,0.29,273.2,27.9,138.04,31.53,24.65,36.54,0.95,-25.58,16.40,-46,41,-931,23.1,26.2,2.7,23.3,2.1,-28.4,5.73,2.57,-26.8,28.9
2012-08-31 01:24:00,0.0,1.9428,0.0009,388.48,0.32,271.9,30.3,138.04,31.53,24.66,36.54,0.95,-25.58,16.51,-46,41,-931,23.1,26.1,2.6,23.3,2.1,-28.3,5.73,2.55,-26.8,28.9
2012-08-31 01:25:00,0.0,1.9428,0.0009,388.48,0.29,273.5,30.4,138.04,31.53,24.66,36.54,0.94,-25.57,16.61,-46,41,-931,23.1,25.8,2.5,23.3,2.1,-28.3,5.73,2.55,-26.8,28.9
2012-08-31 01:26:00,0.0,1.9425,0.0011,388.38,0.29,274.3,29.9,138.04,31.53,24.66,36.54,0.94,-25.57,16.71,-46,41,-931,23.1,26.0,2.5,23.3,2.1,-28.4,5.73,2.57,-26.8,29.0
2012-08-31 01:27:00,0.0,1.9418,0.0008,388.33,0.30,272.5,27.7,138.04,31.53,24.66,36.54,0.93,-25.57,16.80,-46,41,-931,23.1,26.2,2.6,23.3,2.1,-28.3,5.73,2.58,-26.8,29.0
2012-08-31 01:28:00,0.0,1.9420,0.0011,388.48,0.31,270.6,29.3,138.04,31.53,24.65,36.53,0.91,-25.57,16.89,-46,41,-931,23.1,25.7,2.4,23.3,2.1,-28.4,5.73,2.57,-26.8,28.9
2012-08-31 01:29:00,0.0,1.9408,0.0009,388.49,0.24,263.6,31.4,138.04,31.53,24.66,36.53,0.90,-25.57,16.98,-46,41,-932,23.1,25.8,2.4,23.3,2.0,-28.5,5.73,2.56,-26.8,28.9
2012-08-31 01:30:00,0.0,1.9425,0.0009,388.51,0.30,263.3,32.9,138.04,31.53,24.66,36.54,0.91,-25.56,17.06,-46,41,-931,23.1,25.6,2.3,23.3,2.1,-28.4,5.73,2.55,-26.8,28.9
2012-08-31 01:31:00,0.0,1.9426,0.0009,388.38,0.33,268.3,34.5,138.04,31.53,24.66,36.54,0.90,-25.56,17.14,-46,41,-931,23.1,26.3,2.7,23.3,2.1,-28.4,5.73,2.56,-26.8,28.9
2012-08-31 01:32:00,0.0,1.9405,0.0011,388.29,0.32,262.0,34.2,138.04,31.54,24.66,36.54,0.92,-25.56,17.22,-46,41,-931,23.1,26.3,2.7,23.3,2.1,-28.3,5.73,2.58,-26.9,28.9
2012-08-31 01:33:00,0.0,1.9417,0.0009,388.42,0.33,264.7,31.6,138.04,31.54,24.65,36.54,0.92,-25.55,17.29,-46,41,-932,23.1,26.2,2.7,23.4,2.1,-28.3,5.73,2.58,-26.8,28.9
2012-08-31 01:34:00,0.0,1.9428,0.0009,388.47,0.33,276.6,29.1,138.04,31.54,24.65,36.53,0.92,-25.55,17.36,-46,41,-931,23.1,26.4,2.8,23.3,2.1,-28.3,5.73,2.57,-26.8,28.9
2012-08-31 01:35:00,0.0,1.9416,0.0010,388.30,0.31,268.4,33.1,138.04,31.54,24.66,36.54,0.91,-25.55,17.43,-46,41,-931,23.1,26.7,2.9,23.4,2.0,-28.4,5.73,2.55,-26.8,29.0
2012-08-31 01:36:00,0.0,1.9388,0.0011,388.35,0.27,263.7,31.0,138.04,31.54,24.66,36.54,0.93,-25.55,17.49,-46,41,-931,23.1,25.3,2.1,23.3,2.1,-28.3,5.73,2.55,-26.8,28.9
2012-08-31 01:37:00,0.0,1.9392,0.0009,388.40,0.29,269.9,33.6,138.04,31.55,24.66,36.53,0.93,-25.55,17.55,-46,41,-932,23.1,25.3,2.2,23.4,2.1,-28.3,5.73,2.57,-26.9,28.9
2012-08-31 01:38:00,0.0,1.9405,0.0009,388.26,0.26,271.4,29.5,138.04,31.55,24.65,36.54,0.93,-25.55,17.60,-46,41,-931,23.1,25.8,2.5,23.3,2.1,-28.4,5.73,2.58,-26.9,28.9
2012-08-31 01:39:00,0.0,1.9391,0.0012,388.26,0.34,264.6,31.7,138.04,31.55,24.65,36.53,0.94,-25.55,17.66,-46,41,-931,23.1,25.8,2.5,23.3,2.1,-28.3,5.73,2.58,-26.9,28.9
2012-08-31 01:40:00,0.0,1.9393,0.0009,388.38,0.34,271.8,33.2,138.04,31.54,24.66,36.54,0.94,-25.55,17.72,-46,41,-931,23.1,25.3,2.2,23.3,2.1,-28.4,5.73,2.56,-26.9,28.9
2012-08-31 01:41:00,0.0,1.9395,0.0010,388.44,0.28,268.4,25.9,138.04,31.54,24.66,36.53,1.09,-44.24,-4.36,-46,41,-932,23.1,25.3,2.2,23.3,2.0,-28.5,5.42,2.52,-31.1,28.9
2012-08-31 01:42:00,0.0,1.9388,0.0010,388.35,0.31,268.3,24.5,138.04,31.54,24.65,36.53,0.94,-25.54,17.82,-46,41,-931,23.2,25.3,2.2,23.3,2.1,-28.4,5.73,2.56,-26.9,28.9
2012-08-31 01:43:00,0.0,1.9386,0.0009,388.30,0.36,263.3,33.9,138.04,31.54,24.66,36.54,0.94,-25.54,17.87,-46,41,-931,23.1,25.0,2.0,23.4,2.0,-28.6,5.73,2.58,-26.9,28.9
2012-08-31 01:44:00,0.0,1.9377,0.0010,388.24,0.29,265.1,33.3,138.04,31.54,24.66,36.54,0.94,-25.54,17.90,-46,41,-931,23.1,24.7,1.9,23.3,2.0,-28.4,5.73,2.58,-26.9,28.9
2012-08-31 01:45:00,0.0,1.9382,0.0011,388.16,0.35,266.6,33.5,138.04,31.54,24.66,36.55,0.94,-25.55,17.95,-46,41,-932,23.1,25.0,2.0,23.3,2.0,-28.6,5.73,2.56,-26.9,28.9
2012-08-31 01:46:00,0.0,1.9374,0.0009,388.29,0.28,264.7,28.0,138.04,31.54,24.66,36.53,0.94,-25.54,17.99,-46,41,-932,23.1,25.1,2.1,23.3,2.0,-28.5,5.73,2.55,-26.9,29.0
2012-08-31 01:47:00,0.0,1.9373,0.0010,388.30,0.26,265.5,32.9,138.04,31.54,24.65,36.53,0.94,-25.54,18.03,-46,41,-931,23.2,25.2,2.2,23.3,2.1,-28.4,5.73,2.56,-26.9,28.9
2012-08-31 01:48:00,0.0,1.9380,0.0009,388.08,0.30,264.1,29.3,138.04,31.54,24.66,36.54,0.94,-25.54,18.06,-46,41,-931,23.1,26.1,2.6,23.4,2.0,-28.4,5.73,2.58,-26.9,28.9
2012-08-31 01:49:00,0.0,1.9387,0.0011,388.21,0.32,267.0,33.5,138.04,31.54,24.66,36.53,0.94,-25.54,18.10,-46,41,-932,23.1,26.3,2.7,23.3,2.1,-28.4,5.73,2.58,-26.9,28.9
2012-08-31 01:50:00,0.0,1.9389,0.0009,388.17,0.32,268.9,27.2,138.04,31.54,24.66,36.54,0.94,-25.54,18.14,-46,41,-932,23.2,26.1,2.7,23.3,2.0,-28.6,5.73,2.57,-26.9,28.9
2012-08-31 01:51:00,0.0,1.9377,0.0013,388.26,0.27,270.4,30.5,138.04,31.54,24.66,36.53,0.91,-25.53,18.17,-46,41,-931,23.1,26.0,2.6,23.3,2.0,-28.5,5.73,2.55,-26.9,29.0
2012-08-31 01:52:00,0.0,1.9366,0.0010,388.21,0.33,265.2,30.9,138.04,31.54,24.66,36.54,0.92,-25.54,18.20,-46,41,-931,23.1,25.2,2.1,23.4,2.0,-28.4,5.73,2.55,-26.9,28.9
2012-08-31 01:53:00,0.0,1.9369,0.0009,388.20,0.31,262.3,34.9,138.04,31.54,24.66,36.53,0.92,-25.54,18.23,-46,41,-932,23.2,25.5,2.3,23.4,2.0,-28.5,5.73,2.57,-26.9,29.0
2012-08-31 01:54:00,0.0,1.9377,0.0011,388.22,0.30,271.7,27.2,138.04,31.54,24.66,36.54,0.91,-25.53,18.26,-46,41,-932,23.2,25.7,2.4,23.4,2.0,-28.4,5.73,2.58,-26.9,29.0
2012-08-31 01:55:00,0.0,1.9381,0.0009,388.17,0.27,260.5,30.1,138.04,31.54,24.66,36.54,0.91,-25.53,18.29,-46,41,-931,23.2,25.5,2.3,23.4,2.0,-28.5,5.73,2.58,-26.9,29.0
2012-08-31 01:56:00,0.0,1.9384,0.0010,388.28,0.33,265.4,29.5,138.04,31.55,24.66,36.54,0.92,-25.54,18.31,-46,41,-931,23.1,25.2,2.2,23.4,2.0,-28.4,5.73,2.56,-26.9,29.0
2012-08-31 01:57:00,0.0,1.9391,0.0009,388.19,0.34,266.6,31.0,138.04,31.55,24.66,36.55,0.91,-25.53,18.34,-46,41,-932,23.2,25.4,2.3,23.4,2.0,-28.4,5.73,2.55,-26.9,29.0
2012-08-31 01:58:00,0.0,1.9401,0.0009,388.28,0.27,268.3,27.7,138.04,31.55,24.66,36.54,0.91,-25.53,18.36,-46,41,-932,23.2,25.7,2.5,23.4,2.0,-28.5,5.73,2.56,-26.9,28.9
2012-08-31 01:59:00,0.0,1.9414,0.0013,388.38,0.25,260.0,33.2,138.04,31.55,24.66,36.54,0.91,-25.53,18.38,-46,41,-931,23.2,25.9,2.6,23.4,2.0,-28.4,5.73,2.58,-26.9,28.9
2012-08-31 02:00:00,1.0,1.9038,0.0215,380.13,4.63,299.0,29.3,138.04,31.54,24.66,36.54,0.90,-25.52,18.41,-42,-2,-931,23.2,25.9,2.6,23.4,2.0,-28.7,5.73,2.41,-26.6,28.9
2012-08-31 02:01:00,1.0,1.8832,0.0008,375.72,0.33,324.4,30.2,138.04,31.54,24.66,36.54,0.93,-25.53,18.43,-42,-2,-931,23.2,25.7,2.5,23.4,2.0,-28.8,5.73,2.41,-26.5,29.0
2012-08-31 02:02:00,1.0,1.8829,0.0010,375.67,0.28,307.4,30.8,138.04,31.55,24.66,36.54,0.93,-25.53,18.45,-42,-2,-932,23.2,25.7,2.5,23.4,1.9,-29.0,5.73,2.42,-26.7,29.0
2012-08-31 02:03:00,1.0,1.8836,0.0008,375.81,0.35,288.4,28.7,138.04,31.55,24.65,36.53,0.92,-25.53,18.48,-42,-2,-931,23.2,25.8,2.5,23.4,1.9,-29.0,5.73,2.42,-27.0,29.1
2012-08-31 02:04:00,1.0,1.8835,0.0007,375.65,0.29,259.2,25.7,138.04,31.55,24.65,36.55,0.94,-25.54,18.50,-42,-2,-931,23.3,26.0,2.6,23.4,1.9,-29.0,5.73,2.41,-27.4,29.0
2012-08-31 02:05:00,0.0,1.9243,0.0202,384.65,4.36,162.1,47.6,138.04,31.55,24.66,36.54,0.94,-25.54,18.52,-46,41,-931,23.3,26.2,2.8,23.5,1.9,-28.9,5.73,2.59,-29.1,29.0
2012-08-31 02:06:00,0.0,1.9413,0.0008,388.38,0.30,169.1,31.0,138.04,31.55,24.66,36.53,0.94,-25.56,18.52,-46,41,-932,23.3,26.3,2.9,23.5,2.0,-28.8,5.73,2.56,-28.3,29.0
2012-08-31 02:07:00,0.0,1.9403,0.0012,388.27,0.35,201.3,31.9,138.04,31.55,24.66,36.54,0.94,-25.56,18.54,-46,41,-932,23.4,26.2,2.9,23.5,2.0,-28.6,5.73,2.55,-27.9,29.1
2012-08-31 02:08:00,0.0,1.9395,0.0009,388.18,0.24,217.6,35.0,138.04,31.55,24.66,36.54,0.94,-25.56,18.56,-46,41,-931,23.4,26.5,3.0,23.5,2.0,-28.5,5.73,2.56,-27.7,29.0
2012-08-31 02:09:00,0.0,1.9412,0.0015,388.41,0.30,221.6,30.7,138.04,31.56,24.66,36.54,0.94,-25.56,18.57,-46,41,-932,23.4,25.7,2.6,23.5,2.0,-28.5,5.73,2.58,-27.5,29.0
2012-08-31 02:10:00,0.0,1.9431,0.0009,388.53,0.31,235.1,31.1,138.04,31.56,24.66,36.53,0.94,-25.55,18.59,-46,41,-932,23.4,25.8,2.7,23.5,2.0,-28.5,5.73,2.58,-27.4,29.0
2012-08-31 02:11:00,0.0,1.9420,0.0009,388.52,0.27,242.6,35.5,138.04,31.56,24.66,36.54,0.94,-25.56,18.60,-46,41,-931,23.4,25.4,2.4,23.6,2.0,-28.4,5.73,2.57,-27.3,29.0
2012-08-31 02:12:00,0.0,1.9408,0.0010,388.40,0.29,242.5,32.3,138.04,31.56,24.65,36.54,0.97,-25.55,18.51,-46,41,-931,23.4,25.0,2.2,23.6,2.0,-28.4,5.73,2.55,-27.3,29.0
2012-08-31 02:13:00,0.0,1.9412,0.0010,388.35,0.31,250.5,28.1,138.04,31.56,24.66,36.54,1.04,-25.54,17.10,-46,40,-932,23.5,25.3,2.5,23.6,2.0,-28.5,5.73,2.56,-27.2,29.1
2012-08-31 02:14:00,0.0,1.9416,0.0008,388.54,0.30,243.1,25.7,138.04,31.55,24.66,36.53,1.11,-25.54,14.84,-46,41,-932,23.5,24.9,2.3,23.6,2.0,-28.4,5.73,2.57,-27.2,29.1
2012-08-31 02:15:00,0.0,1.9407,0.0008,388.53,0.29,250.6,27.6,138.04,31.55,24.66,36.53,1.00,-25.54,12.47,-46,41,-931,23.5,24.6,2.1,23.6,2.0,-28.4,5.73,2.58,-27.1,29.1
2012-08-31 02:16:00,0.0,1.9401,0.0013,388.26,0.34,251.9,30.7,138.04,31.55,24.65,36.54,0.97,-25.56,10.12,-46,41,-931,23.5,25.1,2.4,23.6,2.0,-28.5,5.73,2.56,-27.1,29.0
2012-08-31 02:17:00,0.0,1.9365,0.0009,388.08,0.27,253.6,27.0,138.04,31.55,24.66,36.54,1.07,-25.56,7.85,-46,41,-932,23.4,25.0,2.3,23.6,2.0,-28.5,5.73,2.55,-27.1,29.0
2012-08-31 02:18:00,0.0,1.9387,0.0019,388.22,0.36,252.7,29.2,138.04,31.55,24.66,36.54,1.07,-25.56,5.68,-46,41,-932,23.5,25.3,2.5,23.6,2.0,-28.4,5.73,2.56,-27.1,29.0
2012-08-31 02:19:00,0.0,1.9381,0.0019,388.29,0.31,254.7,27.6,138.05,31.55,24.66,36.54,0.97,-25.56,3.63,-46,41,-932,23.4,24.9,2.2,23.6,2.0,-28.5,5.73,2.58,-27.1,29.1
2012-08-31 02:20:00,0.0,1.9370,0.0012,388.18,0.27,257.5,32.2,138.04,31.55,24.66,36.54,1.04,-25.56,1.67,-46,41,-932,23.5,24.4,1.9,23.6,2.0,-28.5,5.73,2.58,-27.0,29.1
2012-08-31 02:21:00,0.0,1.9355,0.0011,388.19,0.27,260.7,30.0,138.04,31.55,24.66,36.54,1.09,-25.56,-0.07,-46,41,-931,23.5,23.8,1.6,23.6,2.0,-28.5,5.73,2.55,-27.1,29.1